User: anonymous   Login
Location: Unspecified
(32.3606°N, 0.0000°E)
Time: 00:39:45
(UTC+00:00)
Language:

Meteor 1-27 Rocket - Orbit

View from above orbital plane
View from above orbital plane
View from above satellite
View from above satellite

Ground track
Ground track

The orbit is defined by the following mean orbital elements,

1 09904U          26088.19058691 +.00000000 +00000-0 +11251-3 0 00001
2 09904  81.2593 270.3659 0053776 292.4330  67.1149 14.07315663    09
Epoch (UTC): 29 March 2026 04:34:26
Eccentricity: 0.0053776
inclination: 81.2593°
perigee height: 830 km
apogee height: 908 km
right ascension of ascending node: 270.3659°
argument of perigee: 292.4330°
revolutions per day: 14.07315663
mean anomaly at epoch: 67.1149°

The dashed part of the orbit path shows where the satellite is in the earth's shadow,  

DLR